Flag for Canada Weather past 2 weeks in Newmarket, Ontario, Canada

Now
55 °F

Clear.


Feels Like: 55 °F
Forecast: 53 / 70 °F
Wind: 3 mph from Northwest

Location: Borden

Current Time: Jul 24, 2014 at 12:35:13 AM

Latest Report: Jul 24, 2014 at 12:00 AM


Visibility: 9 mi

Pressure: 30.04 "Hg

Humidity: 94%

Dew point: 54 °F

Location of NewmarketLocation

Historic Weather in Newmarket — Graph

°F

Newmarket temperature yesterday

Maximum temperature yesterday: 77 °F (at 2:00 AM)
Minimum temperature yesterday: 54 °F (at 11:00 PM)
Average temperature yesterday: 66 °F

Past Weeks' High & Low Weather Summary

 TemperatureHumidityPressure
High86 °F (Jul 22, 1:00 PM)100% (Jul 22, 2:01 AM)30.26 "Hg (Jul 22, 2:01 AM)
Low41 °F (Jul 10, 6:00 AM)45% (Jul 21, 5:00 PM)29.64 "Hg (Jul 15, 1:00 PM)
Average65 °F74%30.00 "Hg
* Reported Jul 8 11:00 PM — Jul 23 11:00 PM, Newmarket, Weather by CustomWeather, © 2014

Note: Actual official high and low records may vary slightly from our data, if they occured in-between our weather recording intervals... More about our weather records

Advertising

Newmarket weather history for previous 24 hours

 ConditionsComfort  
Time TempWeatherWind HumidityBarometerVisibility
11:00 PM
Jul 23
54 °FPassing clouds.2 mph88%30.04 "Hg9 mi
10:00 PM57 °FPassing clouds.2 mph77%30.03 "Hg9 mi
9:00 PM61 °FScattered clouds.6 mph68%30.02 "Hg9 mi
8:00 PM66 °FSunny.7 mph60%30.01 "Hg9 mi
7:00 PM66 °FScattered clouds.10 mph64%29.99 "Hg9 mi
6:00 PM68 °FPassing clouds.9 mph64%29.98 "Hg9 mi
5:00 PM66 °FOvercast.14 mph68%29.99 "Hg9 mi
4:00 PM66 °FOvercast.15 mph68%29.99 "Hg9 mi
3:46 PM64 °FOvercast.17 mph73%30.00 "Hg9 mi
3:00 PM64 °FOvercast.13 mph73%29.99 "Hg9 mi
2:52 PM64 °FOvercast.15 mph73%29.99 "Hg9 mi
2:00 PM64 °FOvercast.15 mph78%29.98 "Hg9 mi
1:00 PM64 °FOvercast.17 mph78%29.96 "Hg9 mi
12:00 PM64 °FOvercast.15 mph78%29.94 "Hg9 mi
11:00 AM64 °FOvercast.15 mph78%29.93 "Hg9 mi
10:00 AM64 °FOvercast.13 mph78%29.92 "Hg9 mi
9:00 AM63 °FOvercast.13 mph88%29.93 "Hg9 mi
8:00 AM64 °FOvercast.13 mph88%29.91 "Hg9 mi
7:00 AM64 °FOvercast.13 mph88%29.88 "Hg9 mi
6:00 AM66 °FLight rain. Passing clouds.6 mph94%29.86 "Hg9 mi
5:02 AM70 °FOvercast.8 mph88%29.86 "Hg8 mi
4:00 AM75 °FOvercast.8 mph78%29.83 "Hg9 mi
2:00 AM77 °FMostly cloudy.8 mph74%29.84 "Hg9 mi
1:00 AM75 °FPassing clouds.8 mph78%29.86 "Hg9 mi
12:00 AM75 °FPartly cloudy.8 mph74%29.87 "Hg9 mi
Weather by CustomWeather, © 2014

See weather overviewHow to use our weather pages